Year,Month,Day,Hour,Minute,Value (Times are PST for windspeed in km/hr)
2010,04,01,00,00,2.70
2010,04,01,00,01,1.30
2010,04,01,00,02,0.40
2010,04,01,00,03,0.20
2010,04,01,00,04,1.50
2010,04,01,00,05,0.10
2010,04,01,00,06,0.00
2010,04,01,00,07,0.10
2010,04,01,00,08,0.00
2010,04,01,00,09,0.10
2010,04,01,00,10,0.40
2010,04,01,00,11,0.00
2010,04,01,00,12,0.00
2010,04,01,00,13,0.00
2010,04,01,00,14,0.00
2010,04,01,00,15,0.00
2010,04,01,00,16,0.00
2010,04,01,00,17,0.10
2010,04,01,00,18,0.00
2010,04,01,00,19,0.00
2010,04,01,00,20,0.00
2010,04,01,00,21,0.00
2010,04,01,00,22,0.10
2010,04,01,00,23,0.00
2010,04,01,00,24,0.00
2010,04,01,00,25,0.00
2010,04,01,00,26,0.00
2010,04,01,00,27,0.00
2010,04,01,00,28,0.00
2010,04,01,00,29,0.00
2010,04,01,00,30,0.00
2010,04,01,00,31,0.00
2010,04,01,00,32,0.00
2010,04,01,00,33,0.00
2010,04,01,00,34,0.00
2010,04,01,00,35,0.00
2010,04,01,00,36,0.00
2010,04,01,00,37,0.00
2010,04,01,00,38,0.00
2010,04,01,00,39,0.00
2010,04,01,00,40,0.00
2010,04,01,00,41,0.00
2010,04,01,00,42,0.00
2010,04,01,00,43,0.00
2010,04,01,00,44,0.00
2010,04,01,00,45,0.00
2010,04,01,00,46,0.00
2010,04,01,00,47,0.00
2010,04,01,00,48,0.00
2010,04,01,00,49,0.00
2010,04,01,00,50,0.00
2010,04,01,00,51,0.00
2010,04,01,00,52,0.00
2010,04,01,00,53,0.00
2010,04,01,00,54,0.00
2010,04,01,00,55,0.00
2010,04,01,00,56,0.00
2010,04,01,00,57,0.00
2010,04,01,00,58,0.00
2010,04,01,00,59,0.00
2010,04,01,01,00,0.00
2010,04,01,01,01,0.00
2010,04,01,01,02,0.00
2010,04,01,01,03,0.00
2010,04,01,01,04,0.00
2010,04,01,01,05,0.00
2010,04,01,01,06,0.00
2010,04,01,01,07,0.00
2010,04,01,01,08,0.00
2010,04,01,01,09,0.00
2010,04,01,01,10,0.00
2010,04,01,01,11,0.00
2010,04,01,01,12,0.00
2010,04,01,01,13,0.00
2010,04,01,01,14,0.00
2010,04,01,01,15,0.00
2010,04,01,01,16,0.20
2010,04,01,01,17,0.80
2010,04,01,01,18,0.30
2010,04,01,01,19,0.00
2010,04,01,01,20,0.00
2010,04,01,01,21,0.80
2010,04,01,01,22,1.00
2010,04,01,01,23,2.20
2010,04,01,01,24,0.90
2010,04,01,01,25,1.40
2010,04,01,01,26,3.00
2010,04,01,01,27,1.40
2010,04,01,01,28,0.10
2010,04,01,01,29,0.30
2010,04,01,01,30,0.10
2010,04,01,01,31,0.00
2010,04,01,01,32,0.00
2010,04,01,01,33,0.60
2010,04,01,01,34,0.00
2010,04,01,01,35,0.00
2010,04,01,01,36,0.00
2010,04,01,01,37,0.00
2010,04,01,01,38,0.00
2010,04,01,01,39,0.00
2010,04,01,01,40,0.00
2010,04,01,01,41,0.00
2010,04,01,01,42,0.00
2010,04,01,01,43,0.00
2010,04,01,01,44,0.00
2010,04,01,01,45,1.80
2010,04,01,01,46,0.00
2010,04,01,01,47,0.00
2010,04,01,01,48,0.00
2010,04,01,01,49,0.00
2010,04,01,01,50,0.10
2010,04,01,01,51,1.10
2010,04,01,01,52,1.60
2010,04,01,01,53,1.70
2010,04,01,01,54,1.00
2010,04,01,01,55,2.20
2010,04,01,01,56,0.00
2010,04,01,01,57,0.20
2010,04,01,01,58,0.00
2010,04,01,01,59,0.00
2010,04,01,02,00,0.00
2010,04,01,02,01,0.00
2010,04,01,02,02,0.00
2010,04,01,02,03,0.00
2010,04,01,02,04,0.00
2010,04,01,02,05,0.00
2010,04,01,02,06,0.00
2010,04,01,02,07,0.00
2010,04,01,02,08,0.00
2010,04,01,02,09,0.00
2010,04,01,02,10,0.00
2010,04,01,02,11,0.00
2010,04,01,02,12,0.00
2010,04,01,02,13,1.40
2010,04,01,02,14,0.80
2010,04,01,02,15,0.00
2010,04,01,02,16,0.00
2010,04,01,02,17,0.00
2010,04,01,02,18,0.00
2010,04,01,02,19,0.00
2010,04,01,02,20,0.80
2010,04,01,02,21,1.80
2010,04,01,02,22,1.70
2010,04,01,02,23,1.50
2010,04,01,02,24,1.80
2010,04,01,02,25,3.00
2010,04,01,02,26,2.90
2010,04,01,02,27,2.10
2010,04,01,02,28,0.50
2010,04,01,02,29,2.10
2010,04,01,02,30,1.80
2010,04,01,02,31,1.60
2010,04,01,02,32,3.60
2010,04,01,02,33,2.10
2010,04,01,02,34,3.00
2010,04,01,02,35,3.70
2010,04,01,02,36,3.90
2010,04,01,02,37,2.40
2010,04,01,02,38,4.30
2010,04,01,02,39,2.80
2010,04,01,02,40,3.40
2010,04,01,02,41,2.80
2010,04,01,02,42,4.00
2010,04,01,02,43,1.40
2010,04,01,02,44,2.90
2010,04,01,02,45,2.80
2010,04,01,02,46,1.50
2010,04,01,02,47,1.20
2010,04,01,02,48,0.10
2010,04,01,02,49,0.40
2010,04,01,02,50,1.00
2010,04,01,02,51,0.00
2010,04,01,02,52,0.00
2010,04,01,02,53,0.80
2010,04,01,02,54,1.50
2010,04,01,02,55,0.50
2010,04,01,02,56,0.40
2010,04,01,02,57,0.60
2010,04,01,02,58,0.90
2010,04,01,02,59,1.30
2010,04,01,03,00,2.90
2010,04,01,03,01,1.40
2010,04,01,03,02,1.80
2010,04,01,03,03,0.20
2010,04,01,03,04,1.10
2010,04,01,03,05,0.00
2010,04,01,03,06,0.00
2010,04,01,03,07,0.00
2010,04,01,03,08,0.00
2010,04,01,03,09,0.00
2010,04,01,03,10,0.00
2010,04,01,03,11,0.00
2010,04,01,03,12,2.10
2010,04,01,03,13,2.00
2010,04,01,03,14,1.90
2010,04,01,03,15,1.60
2010,04,01,03,16,1.20
2010,04,01,03,17,1.20
2010,04,01,03,18,0.80
2010,04,01,03,19,0.00
2010,04,01,03,20,0.00
2010,04,01,03,21,0.00
2010,04,01,03,22,0.00
2010,04,01,03,23,0.00
2010,04,01,03,24,0.00
2010,04,01,03,25,0.00
2010,04,01,03,26,0.00
2010,04,01,03,27,0.00
2010,04,01,03,28,0.00
2010,04,01,03,29,0.00
2010,04,01,03,30,0.00
2010,04,01,03,31,0.00
2010,04,01,03,32,0.00
2010,04,01,03,33,0.00
2010,04,01,03,34,0.00
2010,04,01,03,35,0.00
2010,04,01,03,36,0.00
2010,04,01,03,37,0.00
2010,04,01,03,38,0.00
2010,04,01,03,39,0.00
2010,04,01,03,40,0.00
2010,04,01,03,41,0.00
2010,04,01,03,42,0.00
2010,04,01,03,43,0.00
2010,04,01,03,44,0.00
2010,04,01,03,45,0.00
2010,04,01,03,46,0.00
2010,04,01,03,47,0.00
2010,04,01,03,48,0.00
2010,04,01,03,49,0.00
2010,04,01,03,50,0.00
2010,04,01,03,51,0.00
2010,04,01,03,52,0.00
2010,04,01,03,53,0.00
2010,04,01,03,54,0.00
2010,04,01,03,55,0.00
2010,04,01,03,56,0.00
2010,04,01,03,57,0.00
2010,04,01,03,58,0.00
2010,04,01,03,59,0.00
2010,04,01,04,00,0.00
2010,04,01,04,01,0.00
2010,04,01,04,02,0.00
2010,04,01,04,03,0.00
2010,04,01,04,04,0.20
2010,04,01,04,05,0.20
2010,04,01,04,06,0.40
2010,04,01,04,07,0.00
2010,04,01,04,08,0.00
2010,04,01,04,09,0.00
2010,04,01,04,10,0.70
2010,04,01,04,11,0.00
2010,04,01,04,12,0.00
2010,04,01,04,13,0.00
2010,04,01,04,14,0.00
2010,04,01,04,15,0.00
2010,04,01,04,16,0.00
2010,04,01,04,17,0.00
2010,04,01,04,18,0.20
2010,04,01,04,19,0.30
2010,04,01,04,20,1.30
2010,04,01,04,21,0.00
2010,04,01,04,22,0.00
2010,04,01,04,23,0.00
2010,04,01,04,24,0.00
2010,04,01,04,25,0.10
2010,04,01,04,26,0.60
2010,04,01,04,27,0.20
2010,04,01,04,28,0.00
2010,04,01,04,29,0.00
2010,04,01,04,30,0.00
2010,04,01,04,31,0.00
2010,04,01,04,32,0.00
2010,04,01,04,33,0.00
2010,04,01,04,34,0.00
2010,04,01,04,35,0.00
2010,04,01,04,36,0.00
2010,04,01,04,37,0.00
2010,04,01,04,38,0.00
2010,04,01,04,39,0.00
2010,04,01,04,40,0.00
2010,04,01,04,41,0.00
2010,04,01,04,42,0.00
2010,04,01,04,43,0.00
2010,04,01,04,44,0.00
2010,04,01,04,45,0.00
2010,04,01,04,46,0.00
2010,04,01,04,47,0.00
2010,04,01,04,48,0.00
2010,04,01,04,49,0.00
2010,04,01,04,50,0.00
2010,04,01,04,51,0.00
2010,04,01,04,52,0.00
2010,04,01,04,53,0.00
2010,04,01,04,54,0.00
2010,04,01,04,55,0.00
2010,04,01,04,56,0.00
2010,04,01,04,57,0.00
2010,04,01,04,58,0.00
2010,04,01,04,59,0.00
2010,04,01,05,00,0.00
2010,04,01,05,01,0.00
2010,04,01,05,02,0.00
2010,04,01,05,03,0.00
2010,04,01,05,04,0.00
2010,04,01,05,05,0.00
2010,04,01,05,06,0.00
2010,04,01,05,07,0.00
2010,04,01,05,08,0.00
2010,04,01,05,09,0.00
2010,04,01,05,10,0.00
2010,04,01,05,11,0.00
2010,04,01,05,12,0.00
2010,04,01,05,13,0.00
2010,04,01,05,14,0.00
2010,04,01,05,15,0.00
2010,04,01,05,16,0.00
2010,04,01,05,17,0.00
2010,04,01,05,18,0.00
2010,04,01,05,19,0.00
2010,04,01,05,20,0.00
2010,04,01,05,21,0.00
2010,04,01,05,22,0.00
2010,04,01,05,23,0.00
2010,04,01,05,24,0.00
2010,04,01,05,25,0.00
2010,04,01,05,26,0.00
2010,04,01,05,27,0.00
2010,04,01,05,28,0.00
2010,04,01,05,29,0.00
2010,04,01,05,30,0.00
2010,04,01,05,31,0.00
2010,04,01,05,32,0.00
2010,04,01,05,33,0.00
2010,04,01,05,34,0.00
2010,04,01,05,35,0.00
2010,04,01,05,36,0.00
2010,04,01,05,37,0.00
2010,04,01,05,38,0.00
2010,04,01,05,39,0.00
2010,04,01,05,40,0.00
2010,04,01,05,41,1.00
2010,04,01,05,42,0.10
2010,04,01,05,43,2.70
2010,04,01,05,44,2.10
2010,04,01,05,45,0.20
2010,04,01,05,46,2.40
2010,04,01,05,47,3.90
2010,04,01,05,48,0.40
2010,04,01,05,49,2.40
2010,04,01,05,50,0.40
2010,04,01,05,51,1.20
2010,04,01,05,52,0.00
2010,04,01,05,53,1.50
2010,04,01,05,54,0.90
2010,04,01,05,55,0.60
2010,04,01,05,56,1.20
2010,04,01,05,57,0.00
2010,04,01,05,58,0.00
2010,04,01,05,59,0.10
2010,04,01,06,00,0.00
2010,04,01,06,01,0.10
2010,04,01,06,02,0.20
2010,04,01,06,03,0.00
2010,04,01,06,04,0.00
2010,04,01,06,05,0.00
2010,04,01,06,06,0.00
2010,04,01,06,07,0.00
2010,04,01,06,08,0.00
2010,04,01,06,09,0.00
2010,04,01,06,10,0.00
2010,04,01,06,11,1.00
2010,04,01,06,12,0.10
2010,04,01,06,13,0.00
2010,04,01,06,14,0.00
2010,04,01,06,15,0.00
2010,04,01,06,16,1.70
2010,04,01,06,17,0.00
2010,04,01,06,18,0.10
2010,04,01,06,19,0.00
2010,04,01,06,20,0.00
2010,04,01,06,21,0.00
2010,04,01,06,22,0.00
2010,04,01,06,23,0.10
2010,04,01,06,24,2.30
2010,04,01,06,25,1.70
2010,04,01,06,26,1.60
2010,04,01,06,27,2.30
2010,04,01,06,28,0.60
2010,04,01,06,29,0.00
2010,04,01,06,30,1.00
2010,04,01,06,31,0.40
2010,04,01,06,32,0.10
2010,04,01,06,33,1.90
2010,04,01,06,34,0.10
2010,04,01,06,35,0.00
2010,04,01,06,36,0.00
2010,04,01,06,37,0.80
2010,04,01,06,38,0.30
2010,04,01,06,39,0.00
2010,04,01,06,40,0.80
2010,04,01,06,41,0.40
2010,04,01,06,42,0.10
2010,04,01,06,43,1.00
2010,04,01,06,44,1.30
2010,04,01,06,45,0.90
2010,04,01,06,46,1.40
2010,04,01,06,47,1.70
2010,04,01,06,48,1.80
2010,04,01,06,49,1.30
2010,04,01,06,50,2.20
2010,04,01,06,51,0.10
2010,04,01,06,52,0.10
2010,04,01,06,53,0.00
2010,04,01,06,54,0.00
2010,04,01,06,55,0.00
2010,04,01,06,56,0.00
2010,04,01,06,57,0.00
2010,04,01,06,58,0.30
2010,04,01,06,59,0.40
2010,04,01,07,00,1.90
2010,04,01,07,01,2.00
2010,04,01,07,02,0.20
2010,04,01,07,03,0.00
2010,04,01,07,04,0.00
2010,04,01,07,05,0.00
2010,04,01,07,06,0.00
2010,04,01,07,07,0.00
2010,04,01,07,08,0.10
2010,04,01,07,09,1.50
2010,04,01,07,10,1.50
2010,04,01,07,11,0.40
2010,04,01,07,12,0.20
2010,04,01,07,13,1.20
2010,04,01,07,14,2.00
2010,04,01,07,15,1.10
2010,04,01,07,16,1.80
2010,04,01,07,17,3.40
2010,04,01,07,18,1.90
2010,04,01,07,19,2.80
2010,04,01,07,20,3.50
2010,04,01,07,21,3.70
2010,04,01,07,22,5.10
2010,04,01,07,23,3.60
2010,04,01,07,24,4.30
2010,04,01,07,25,5.40
2010,04,01,07,26,3.50
2010,04,01,07,27,4.70
2010,04,01,07,28,4.30
2010,04,01,07,29,2.60
2010,04,01,07,30,3.80
2010,04,01,07,31,4.50
2010,04,01,07,32,3.00
2010,04,01,07,33,6.70
2010,04,01,07,34,2.30
2010,04,01,07,35,4.10
2010,04,01,07,36,7.60
2010,04,01,07,37,6.00
2010,04,01,07,38,7.10
2010,04,01,07,39,5.50
2010,04,01,07,40,7.30
2010,04,01,07,41,4.40
2010,04,01,07,42,6.40
2010,04,01,07,43,8.10
2010,04,01,07,44,7.40
2010,04,01,07,45,6.20
2010,04,01,07,46,6.40
2010,04,01,07,47,6.30
2010,04,01,07,48,8.10
2010,04,01,07,49,4.80
2010,04,01,07,50,2.70
2010,04,01,07,51,5.40
2010,04,01,07,52,3.70
2010,04,01,07,53,2.20
2010,04,01,07,54,3.00
2010,04,01,07,55,0.70
2010,04,01,07,56,4.80
2010,04,01,07,57,2.00
2010,04,01,07,58,1.80
2010,04,01,07,59,2.80
2010,04,01,08,00,2.50
2010,04,01,08,01,3.80
2010,04,01,08,02,3.90
2010,04,01,08,03,2.60
2010,04,01,08,04,0.20
2010,04,01,08,05,2.30
2010,04,01,08,06,0.50
2010,04,01,08,07,2.70
2010,04,01,08,08,2.00
2010,04,01,08,09,1.80
2010,04,01,08,10,0.60
2010,04,01,08,11,0.00
2010,04,01,08,12,0.00
2010,04,01,08,13,0.40
2010,04,01,08,14,0.20
2010,04,01,08,15,0.20
2010,04,01,08,16,0.00
2010,04,01,08,17,0.90
2010,04,01,08,18,0.20
2010,04,01,08,19,0.50
2010,04,01,08,20,1.00
2010,04,01,08,21,0.00
2010,04,01,08,22,0.70
2010,04,01,08,23,2.00
2010,04,01,08,24,2.20
2010,04,01,08,25,2.60
2010,04,01,08,26,1.00
2010,04,01,08,27,2.20
2010,04,01,08,28,1.00
2010,04,01,08,29,0.90
2010,04,01,08,30,1.90
2010,04,01,08,31,3.20
2010,04,01,08,32,3.70
2010,04,01,08,33,2.00
2010,04,01,08,34,1.70
2010,04,01,08,35,0.10
2010,04,01,08,36,0.00
2010,04,01,08,37,0.00
2010,04,01,08,38,3.40
2010,04,01,08,39,1.00
2010,04,01,08,40,1.70
2010,04,01,08,41,2.50
2010,04,01,08,42,6.60
2010,04,01,08,43,1.20
2010,04,01,08,44,5.10
2010,04,01,08,45,4.70
2010,04,01,08,46,5.10
2010,04,01,08,47,4.20
2010,04,01,08,48,1.90
2010,04,01,08,49,5.90
2010,04,01,08,50,5.30
2010,04,01,08,51,7.20
2010,04,01,08,52,0.50
2010,04,01,08,53,1.00
2010,04,01,08,54,1.20
2010,04,01,08,55,4.80
2010,04,01,08,56,5.50
2010,04,01,08,57,4.80
2010,04,01,08,58,4.50
2010,04,01,08,59,6.10
2010,04,01,09,00,1.50
2010,04,01,09,01,0.70
2010,04,01,09,02,5.40
2010,04,01,09,03,1.80
2010,04,01,09,04,0.20
2010,04,01,09,05,1.70
2010,04,01,09,06,3.50
2010,04,01,09,07,7.80
2010,04,01,09,08,5.80
2010,04,01,09,09,4.40
2010,04,01,09,10,2.90
2010,04,01,09,11,3.90
2010,04,01,09,12,4.40
2010,04,01,09,13,3.50
2010,04,01,09,14,6.90
2010,04,01,09,15,7.10
2010,04,01,09,16,8.20
2010,04,01,09,17,7.20
2010,04,01,09,18,4.80
2010,04,01,09,19,1.90
2010,04,01,09,20,4.30
2010,04,01,09,21,4.20
2010,04,01,09,22,4.90
2010,04,01,09,23,3.30
2010,04,01,09,24,0.70
2010,04,01,09,25,4.70
2010,04,01,09,26,5.30
2010,04,01,09,27,3.70
2010,04,01,09,28,4.80
2010,04,01,09,29,3.90
2010,04,01,09,30,4.20
2010,04,01,09,31,4.70
2010,04,01,09,32,7.20
2010,04,01,09,33,6.10
2010,04,01,09,34,3.70
2010,04,01,09,35,0.80
2010,04,01,09,36,5.30
2010,04,01,09,37,7.70
2010,04,01,09,38,10.50
2010,04,01,09,39,4.80
2010,04,01,09,40,5.20
2010,04,01,09,41,7.90
2010,04,01,09,42,7.70
2010,04,01,09,43,10.00
2010,04,01,09,44,9.90
2010,04,01,09,45,7.50
2010,04,01,09,46,9.70
2010,04,01,09,47,13.30
2010,04,01,09,48,18.30
2010,04,01,09,49,7.90
2010,04,01,09,50,9.00
2010,04,01,09,51,13.00
2010,04,01,09,52,11.20
2010,04,01,09,53,11.10
2010,04,01,09,54,6.00
2010,04,01,09,55,8.00
2010,04,01,09,56,8.90
2010,04,01,09,57,12.70
2010,04,01,09,58,7.20
2010,04,01,09,59,11.10
2010,04,01,10,00,8.80
2010,04,01,10,01,5.70
2010,04,01,10,02,10.20
2010,04,01,10,03,10.90
2010,04,01,10,04,5.30
2010,04,01,10,05,6.90
2010,04,01,10,06,7.60
2010,04,01,10,07,5.20
2010,04,01,10,08,7.30
2010,04,01,10,09,9.10
2010,04,01,10,10,8.70
2010,04,01,10,11,4.80
2010,04,01,10,12,11.70
2010,04,01,10,13,5.90
2010,04,01,10,14,5.70
2010,04,01,10,15,5.80
2010,04,01,10,16,1.20
2010,04,01,10,17,1.30
2010,04,01,10,18,8.80
2010,04,01,10,19,9.10
2010,04,01,10,20,7.90
2010,04,01,10,21,8.60
2010,04,01,10,22,4.30
2010,04,01,10,23,11.20
2010,04,01,10,24,11.00
2010,04,01,10,25,3.50
2010,04,01,10,26,11.40
2010,04,01,10,27,7.80
2010,04,01,10,28,7.20
2010,04,01,10,29,5.80
2010,04,01,10,30,5.50
2010,04,01,10,31,7.70
2010,04,01,10,32,11.30
2010,04,01,10,33,5.90
2010,04,01,10,34,5.80
2010,04,01,10,35,7.50
2010,04,01,10,36,10.50
2010,04,01,10,37,4.10
2010,04,01,10,38,3.50
2010,04,01,10,39,2.50
2010,04,01,10,40,6.70
2010,04,01,10,41,9.10
2010,04,01,10,42,6.20
2010,04,01,10,43,9.00
2010,04,01,10,44,9.40
2010,04,01,10,45,7.20
2010,04,01,10,46,3.40
2010,04,01,10,47,8.00
2010,04,01,10,48,8.00
2010,04,01,10,49,9.40
2010,04,01,10,50,10.20
2010,04,01,10,51,7.80
2010,04,01,10,52,8.50
2010,04,01,10,53,2.30
2010,04,01,10,54,8.10
2010,04,01,10,55,7.10
2010,04,01,10,56,7.40
2010,04,01,10,57,6.70
2010,04,01,10,58,4.70
2010,04,01,10,59,7.80
2010,04,01,11,00,7.70
2010,04,01,11,01,8.60
2010,04,01,11,02,5.50
2010,04,01,11,03,8.90
2010,04,01,11,04,11.40
2010,04,01,11,05,8.30
2010,04,01,11,06,6.40
2010,04,01,11,07,5.10
2010,04,01,11,08,5.90
2010,04,01,11,09,3.10
2010,04,01,11,10,7.60
2010,04,01,11,11,6.50
2010,04,01,11,12,5.00
2010,04,01,11,13,7.40
2010,04,01,11,14,6.30
2010,04,01,11,15,6.50
2010,04,01,11,16,8.10
2010,04,01,11,17,3.80
2010,04,01,11,18,4.80
2010,04,01,11,19,11.10
2010,04,01,11,20,9.20
2010,04,01,11,21,9.70
2010,04,01,11,22,9.80
2010,04,01,11,23,4.70
2010,04,01,11,24,3.10
2010,04,01,11,25,3.40
2010,04,01,11,26,9.10
2010,04,01,11,27,2.70
2010,04,01,11,28,6.00
2010,04,01,11,29,5.90
2010,04,01,11,30,11.20
2010,04,01,11,31,13.30
2010,04,01,11,32,13.00
2010,04,01,11,33,9.10
2010,04,01,11,34,5.70
2010,04,01,11,35,2.70
2010,04,01,11,36,5.60
2010,04,01,11,37,3.40
2010,04,01,11,38,7.60
2010,04,01,11,39,10.30
2010,04,01,11,40,6.50
2010,04,01,11,41,4.90
2010,04,01,11,42,6.00
2010,04,01,11,43,13.00
2010,04,01,11,44,11.80
2010,04,01,11,45,12.50
2010,04,01,11,46,12.40
2010,04,01,11,47,8.40
2010,04,01,11,48,7.60
2010,04,01,11,49,9.90
2010,04,01,11,50,6.60
2010,04,01,11,51,11.60
2010,04,01,11,52,7.20
2010,04,01,11,53,5.90
2010,04,01,11,54,11.30
2010,04,01,11,55,10.90
2010,04,01,11,56,9.30
2010,04,01,11,57,6.10
2010,04,01,11,58,8.90
2010,04,01,11,59,9.30
2010,04,01,12,00,7.80
2010,04,01,12,01,7.70
2010,04,01,12,02,6.80
2010,04,01,12,03,8.10
2010,04,01,12,04,10.60
2010,04,01,12,05,6.90
2010,04,01,12,06,6.70
2010,04,01,12,07,6.00
2010,04,01,12,08,8.20
2010,04,01,12,09,10.00
2010,04,01,12,10,10.20
2010,04,01,12,11,14.10
2010,04,01,12,12,13.20
2010,04,01,12,13,10.90
2010,04,01,12,14,10.00
2010,04,01,12,15,9.90
2010,04,01,12,16,14.60
2010,04,01,12,17,15.60
2010,04,01,12,18,11.20
2010,04,01,12,19,13.00
2010,04,01,12,20,11.00
2010,04,01,12,21,11.40
2010,04,01,12,22,9.70
2010,04,01,12,23,14.50
2010,04,01,12,24,12.40
2010,04,01,12,25,14.00
2010,04,01,12,26,16.90
2010,04,01,12,27,16.60
2010,04,01,12,28,14.50
2010,04,01,12,29,15.30
2010,04,01,12,30,16.40
2010,04,01,12,31,15.00
2010,04,01,12,32,15.10
2010,04,01,12,33,12.90
2010,04,01,12,34,13.40
2010,04,01,12,35,14.30
2010,04,01,12,36,8.60
2010,04,01,12,37,11.50
2010,04,01,12,38,14.00
2010,04,01,12,39,11.60
2010,04,01,12,40,15.80
2010,04,01,12,41,10.90
2010,04,01,12,42,12.10
2010,04,01,12,43,12.90
2010,04,01,12,44,11.30
2010,04,01,12,45,10.40
2010,04,01,12,46,10.40
2010,04,01,12,47,14.70
2010,04,01,12,48,12.70
2010,04,01,12,49,12.30
2010,04,01,12,50,13.50
2010,04,01,12,51,14.30
2010,04,01,12,52,14.60
2010,04,01,12,53,7.40
2010,04,01,12,54,12.70
2010,04,01,12,55,17.10
2010,04,01,12,56,19.70
2010,04,01,12,57,16.00
2010,04,01,12,58,16.60
2010,04,01,12,59,12.30
2010,04,01,13,00,10.30
2010,04,01,13,01,11.70
2010,04,01,13,02,12.30
2010,04,01,13,03,13.30
2010,04,01,13,04,10.50
2010,04,01,13,05,13.00
2010,04,01,13,06,16.50
2010,04,01,13,07,13.30
2010,04,01,13,08,14.50
2010,04,01,13,09,8.00
2010,04,01,13,10,12.80
2010,04,01,13,11,15.80
2010,04,01,13,12,13.60
2010,04,01,13,13,14.60
2010,04,01,13,14,10.10
2010,04,01,13,15,14.60
2010,04,01,13,16,10.80
2010,04,01,13,17,14.50
2010,04,01,13,18,13.80
2010,04,01,13,19,13.70
2010,04,01,13,20,13.00
2010,04,01,13,21,17.60
2010,04,01,13,22,11.70
2010,04,01,13,23,16.40
2010,04,01,13,24,17.60
2010,04,01,13,25,19.40
2010,04,01,13,26,16.70
2010,04,01,13,27,12.70
2010,04,01,13,28,16.40
2010,04,01,13,29,13.40
2010,04,01,13,30,14.40
2010,04,01,13,31,16.50
2010,04,01,13,32,13.40
2010,04,01,13,33,14.60
2010,04,01,13,34,15.40
2010,04,01,13,35,13.70
2010,04,01,13,36,18.00
2010,04,01,13,37,16.30
2010,04,01,13,38,17.40
2010,04,01,13,39,14.00
2010,04,01,13,40,15.40
2010,04,01,13,41,11.80
2010,04,01,13,42,12.10
2010,04,01,13,43,13.00
2010,04,01,13,44,11.50
2010,04,01,13,45,13.00
2010,04,01,13,46,16.80
2010,04,01,13,47,11.90
2010,04,01,13,48,8.30
2010,04,01,13,49,7.60
2010,04,01,13,50,10.30
2010,04,01,13,51,10.50
2010,04,01,13,52,11.70
2010,04,01,13,53,10.50
2010,04,01,13,54,12.60
2010,04,01,13,55,16.00
2010,04,01,13,56,12.60
2010,04,01,13,57,18.30
2010,04,01,13,58,14.30
2010,04,01,13,59,14.70
2010,04,01,14,00,16.90
2010,04,01,14,01,14.30
2010,04,01,14,02,9.80
2010,04,01,14,03,10.50
2010,04,01,14,04,13.40
2010,04,01,14,05,9.00
2010,04,01,14,06,13.60
2010,04,01,14,07,11.10
2010,04,01,14,08,13.20
2010,04,01,14,09,13.30
2010,04,01,14,10,10.40
2010,04,01,14,11,10.60
2010,04,01,14,12,8.90
2010,04,01,14,13,10.70
2010,04,01,14,14,10.00
2010,04,01,14,15,9.80
2010,04,01,14,16,10.50
2010,04,01,14,17,8.70
2010,04,01,14,18,11.40
2010,04,01,14,19,9.70
2010,04,01,14,20,10.20
2010,04,01,14,21,11.60
2010,04,01,14,22,9.20
2010,04,01,14,23,8.80
2010,04,01,14,24,13.70
2010,04,01,14,25,11.30
2010,04,01,14,26,13.50
2010,04,01,14,27,11.70
2010,04,01,14,28,18.00
2010,04,01,14,29,14.10
2010,04,01,14,30,14.00
2010,04,01,14,31,10.70
2010,04,01,14,32,11.80
2010,04,01,14,33,10.40
2010,04,01,14,34,11.60
2010,04,01,14,35,7.40
2010,04,01,14,36,8.40
2010,04,01,14,37,11.90
2010,04,01,14,38,9.30
2010,04,01,14,39,10.60
2010,04,01,14,40,7.30
2010,04,01,14,41,10.00
2010,04,01,14,42,11.80
2010,04,01,14,43,11.70
2010,04,01,14,44,13.90
2010,04,01,14,45,11.10
2010,04,01,14,46,12.10
2010,04,01,14,47,7.20
2010,04,01,14,48,10.40
2010,04,01,14,49,10.00
2010,04,01,14,50,12.30
2010,04,01,14,51,14.20
2010,04,01,14,52,11.50
2010,04,01,14,53,10.90
2010,04,01,14,54,8.60
2010,04,01,14,55,10.50
2010,04,01,14,56,9.60
2010,04,01,14,57,11.20
2010,04,01,14,58,13.50
2010,04,01,14,59,10.90
2010,04,01,15,00,10.90
2010,04,01,15,01,11.10
2010,04,01,15,02,10.80
2010,04,01,15,03,10.50
2010,04,01,15,04,15.20
2010,04,01,15,05,11.30
2010,04,01,15,06,16.50
2010,04,01,15,07,9.90
2010,04,01,15,08,9.90
2010,04,01,15,09,15.20
2010,04,01,15,10,13.20
2010,04,01,15,11,9.10
2010,04,01,15,12,9.00
2010,04,01,15,13,9.30
2010,04,01,15,14,9.00
2010,04,01,15,15,9.40
2010,04,01,15,16,8.90
2010,04,01,15,17,8.10
2010,04,01,15,18,7.10
2010,04,01,15,19,8.10
2010,04,01,15,20,12.10
2010,04,01,15,21,8.90
2010,04,01,15,22,9.10
2010,04,01,15,23,11.60
2010,04,01,15,24,13.60
2010,04,01,15,25,14.30
2010,04,01,15,26,14.10
2010,04,01,15,27,9.70
2010,04,01,15,28,13.20
2010,04,01,15,29,18.10
2010,04,01,15,30,15.90
2010,04,01,15,31,15.80
2010,04,01,15,32,14.50
2010,04,01,15,33,16.80
2010,04,01,15,34,13.20
2010,04,01,15,35,15.80
2010,04,01,15,36,12.80
2010,04,01,15,37,14.20
2010,04,01,15,38,14.60
2010,04,01,15,39,9.70
2010,04,01,15,40,11.50
2010,04,01,15,41,14.20
2010,04,01,15,42,15.30
2010,04,01,15,43,14.40
2010,04,01,15,44,10.20
2010,04,01,15,45,11.00
2010,04,01,15,46,10.10
2010,04,01,15,47,15.70
2010,04,01,15,48,13.80
2010,04,01,15,49,11.60
2010,04,01,15,50,11.70
2010,04,01,15,51,18.80
2010,04,01,15,52,13.40
2010,04,01,15,53,8.90
2010,04,01,15,54,10.40
2010,04,01,15,55,17.00
2010,04,01,15,56,17.00
2010,04,01,15,57,17.20
2010,04,01,15,58,15.70
2010,04,01,15,59,14.10
2010,04,01,16,00,15.60
2010,04,01,16,01,13.00
2010,04,01,16,02,15.50
2010,04,01,16,03,14.90
2010,04,01,16,04,12.00
2010,04,01,16,05,13.50
2010,04,01,16,06,7.90
2010,04,01,16,07,6.80
2010,04,01,16,08,9.80
2010,04,01,16,09,8.50
2010,04,01,16,10,9.30
2010,04,01,16,11,14.60
2010,04,01,16,12,14.10
2010,04,01,16,13,13.30
2010,04,01,16,14,12.50
2010,04,01,16,15,11.30
2010,04,01,16,16,7.80
2010,04,01,16,17,7.80
2010,04,01,16,18,10.50
2010,04,01,16,19,9.70
2010,04,01,16,20,11.70
2010,04,01,16,21,7.80
2010,04,01,16,22,7.00
2010,04,01,16,23,7.70
2010,04,01,16,24,11.00
2010,04,01,16,25,11.20
2010,04,01,16,26,12.20
2010,04,01,16,27,13.30
2010,04,01,16,28,8.10
2010,04,01,16,29,8.40
2010,04,01,16,30,7.60
2010,04,01,16,31,8.10
2010,04,01,16,32,9.30
2010,04,01,16,33,7.20
2010,04,01,16,34,9.10
2010,04,01,16,35,9.10
2010,04,01,16,36,7.90
2010,04,01,16,37,7.20
2010,04,01,16,38,9.10
2010,04,01,16,39,6.80
2010,04,01,16,40,8.10
2010,04,01,16,41,7.10
2010,04,01,16,42,7.20
2010,04,01,16,43,5.40
2010,04,01,16,44,3.70
2010,04,01,16,45,6.70
2010,04,01,16,46,7.60
2010,04,01,16,47,5.00
2010,04,01,16,48,3.60
2010,04,01,16,49,4.30
2010,04,01,16,50,2.60
2010,04,01,16,51,3.10
2010,04,01,16,52,5.00
2010,04,01,16,53,6.40
2010,04,01,16,54,6.20
2010,04,01,16,55,5.70
2010,04,01,16,56,5.30
2010,04,01,16,57,6.90
2010,04,01,16,58,8.30
2010,04,01,16,59,7.50
2010,04,01,17,00,3.80
2010,04,01,17,01,3.00
2010,04,01,17,02,1.00
2010,04,01,17,03,2.20
2010,04,01,17,04,2.70
2010,04,01,17,05,1.90
2010,04,01,17,06,0.90
2010,04,01,17,07,2.00
2010,04,01,17,08,2.30
2010,04,01,17,09,0.30
2010,04,01,17,10,3.10
2010,04,01,17,11,3.40
2010,04,01,17,12,0.80
2010,04,01,17,13,0.10
2010,04,01,17,14,0.00
2010,04,01,17,15,0.10
2010,04,01,17,16,0.10
2010,04,01,17,17,0.60
2010,04,01,17,18,0.00
2010,04,01,17,19,0.10
2010,04,01,17,20,0.00
2010,04,01,17,21,0.00
2010,04,01,17,22,0.00
2010,04,01,17,23,0.00
2010,04,01,17,24,0.10
2010,04,01,17,25,0.00
2010,04,01,17,26,1.80
2010,04,01,17,27,0.50
2010,04,01,17,28,0.10
2010,04,01,17,29,2.80
2010,04,01,17,30,4.70
2010,04,01,17,31,6.30
2010,04,01,17,32,4.30
2010,04,01,17,33,7.50
2010,04,01,17,34,4.80
2010,04,01,17,35,3.60
2010,04,01,17,36,3.60
2010,04,01,17,37,1.90
2010,04,01,17,38,1.80
2010,04,01,17,39,0.10
2010,04,01,17,40,0.00
2010,04,01,17,41,0.00
2010,04,01,17,42,0.30
2010,04,01,17,43,0.00
2010,04,01,17,44,0.50
2010,04,01,17,45,0.60
2010,04,01,17,46,2.20
2010,04,01,17,47,1.50
2010,04,01,17,48,0.40
2010,04,01,17,49,0.40
2010,04,01,17,50,0.50
2010,04,01,17,51,1.40
2010,04,01,17,52,1.70
2010,04,01,17,53,2.10
2010,04,01,17,54,2.30
2010,04,01,17,55,1.00